Location: Valencia
(39.4670°N, 0.3670°W)
Time: 08:49:22
(UTC+02:00)

ISS - Pass Details

Date: 04 July 2017
Orbit: 400 x 408 km, 51.6° (Epoch: 21 July)

Event Time Altitude Azimuth Distance (km) Brightness Sun altitude
Exits shadow 05:29:51 - 174° (S) 1,634 -1.1 -11.6°
Reaches altitude 10° 05:30:35 10° 164° (SSE) 1,444 -1.3 -11.5°
Maximum altitude 05:32:25 14° 130° (SE) 1,213 -1.3 -11.2°
Drops below altitude 10° 05:34:16 10° 95° (E) 1,452 -0.4 -11.0°
Sets 05:37:02 0° 69° (ENE) 2,319 1.5 -10.6°
